Terminal Aerodrome Forecast
Issued by NWS Charleston, SC

Home | Current Version | Previous Version | Text Only | Print | Product List | Glossary On
Versions: 1 2 3 4 5 6 7 8 9 10 11 12 13 14 15 16 17 18 19 20 21 22 23 24 25 26 27 28 29 30 31 32 33 34
357
FTUS42 KCHS 310251 CCA
TAFCHS
TAF COR
KCHS 310251Z 3103/3124 31006KT P6SM -SHRA BKN008
      TEMPO 3103/3105 SCT008 BKN015
     FM310500 33004KT P6SM SCT005 BKN010
     FM311430 34007KT P6SM SCT015 BKN030
     FM311800 33007KT P6SM VCSH SCT030 BKN050=

USA.gov is the U.S. government's official web portal to all federal, state and local government web resources and services.